Weather History for KBAZ - January, 2013

Change the Weather History Date:

Tuesday, January 8, 2013

  Actual Average (KSAT) Record (KSAT)
Temperature  
Mean Temperature 52 °F 51 °F  
Max Temperature 55 °F 62 °F 84 °F (1923)
Min Temperature 48 °F 40 °F 6 °F (1886)
Degree Days  
Heating Degree Days 14 14  
Month to date heating degree days 112  
Since 1 July heating degree days 714  
Cooling Degree Days 0 0  
Month to date cooling degree days 0  
Year to date cooling degree days 0  
Growing Degree Days 2 (Base 50)    
Moisture  
Dew Point 50 °F    
Average Humidity 96    
Maximum Humidity 100    
Minimum Humidity 93    
Precipitation  
Precipitation 0.27 in 0.05 in 1.09 in (1984)
Month to date precipitation 0.44  
Year to date precipitation 0.44  
Snow  
Snow 0.00 in - - ()
Month to date snowfall  
Since 1 July snowfall  
Snow Depth -    
Sea Level Pressure  
Sea Level Pressure 29.94 in    
Wind  
Wind Speed 8 mph (NE)    
Max Wind Speed 17 mph    
Max Gust Speed 22 mph    
Visibility 3 miles    
Events Rain , Thunderstorm    
T = Trace of Precipitation, MM = Missing Value Source: NWS Daily Summary

Daily Weather History Graph

Daily Weather History Graph

Search for Another Location

Airport or City:

Trip Planner

Search our weather history database for the weather conditions in past years. The results will help you decide how hot, cold, wet, or windy it might be!

Date:

Astronomy

Jan. 08, 2013 Rise Set
Actual Time 7:28 AM CST 5:49 PM CST
Civil Twilight 7:02 AM CST 6:15 PM CST
Nautical Twilight 6:33 AM CST 6:45 PM CST
Astronomical Twilight 6:04 AM CST 7:14 PM CST
Moon 4:04 AM CST (1/8) 2:52 PM CST (1/8)
Length of Visible Light 11h 13m
Length of Day
10h 21m
Waning Crescent, 13% of the Moon is Illuminated
Jan 8
Waning Crescent
Jan 11
New
Jan 18
First Quarter
Jan 26
Full
Feb 3
Last Quarter

Hourly Weather History & Observations

Time (CST) Temp. Dew Point Humidity Pressure Visibility Wind Dir Wind Speed Gust Speed Precip Events Conditions
12:29 AM 48.2 °F 46.4 °F 93% 30.04 in 2.5 mi ENE 5.8 mph - 0.00 in Rain Light Rain
12:46 AM 48.2 °F 46.4 °F 93% 30.03 in 1.8 mi NE 4.6 mph - 0.00 in Rain Light Rain
12:51 AM 48.9 °F 46.9 °F 93% 30.03 in 1.5 mi NE 4.6 mph - 0.00 in Rain Light Rain
1:00 AM 48.2 °F 46.4 °F 93% 30.03 in 1.2 mi NNE 4.6 mph - 0.00 in Rain Light Rain
1:22 AM 48.2 °F 46.4 °F 93% 30.02 in 1.0 mi NE 4.6 mph - 0.00 in Rain Light Rain
1:33 AM 48.2 °F 46.4 °F 93% 30.02 in 1.2 mi NE 5.8 mph - 0.00 in Rain Light Rain
1:38 AM 48.2 °F 46.4 °F 93% 30.02 in 1.5 mi NE 5.8 mph - 0.00 in Rain Light Rain
1:51 AM 48.9 °F 46.9 °F 93% 30.01 in 1.5 mi NE 6.9 mph - 0.00 in   Overcast
2:03 AM 48.2 °F 46.4 °F 93% 30.01 in 1.8 mi ENE 8.1 mph - N/A   Overcast
2:11 AM 48.2 °F 46.4 °F 93% 30.01 in 1.5 mi ENE 6.9 mph - N/A   Overcast
2:27 AM 48.2 °F 46.4 °F 93% 30.00 in 1.2 mi NE 5.8 mph - 0.00 in Rain Light Rain
2:37 AM 48.2 °F 46.4 °F 93% 30.00 in 1.8 mi NE 8.1 mph - 0.00 in Rain Light Rain
2:46 AM 48.2 °F 46.4 °F 93% 30.00 in 2.0 mi NE 9.2 mph - 0.00 in Rain Light Rain
2:51 AM 48.0 °F 46.9 °F 96% 30.00 in 2.5 mi NE 8.1 mph - 0.00 in Rain Light Rain
2:58 AM 48.2 °F 46.4 °F 93% 30.00 in 1.5 mi ENE 6.9 mph - 0.00 in Rain Light Rain
3:07 AM 48.2 °F 46.4 °F 93% 30.00 in 1.2 mi ENE 8.1 mph - 0.01 in Rain Light Rain
3:11 AM 48.2 °F 46.4 °F 93% 30.00 in 1.8 mi ENE 6.9 mph - 0.01 in Rain Light Rain
3:19 AM 48.2 °F 46.4 °F 93% 30.00 in 2.0 mi ENE 8.1 mph - 0.01 in Rain Light Rain
3:38 AM 48.2 °F 46.4 °F 93% 29.99 in 1.5 mi ENE 6.9 mph - 0.01 in Rain Light Rain
3:51 AM 48.0 °F 46.9 °F 96% 29.99 in 1.8 mi ENE 11.5 mph - 0.01 in Rain Light Rain
3:58 AM 48.2 °F 46.4 °F 93% 29.98 in 1.5 mi ENE 9.2 mph - 0.00 in Rain Light Rain
4:09 AM 48.2 °F 46.4 °F 93% 29.97 in 1.8 mi ENE 11.5 mph - 0.00 in Rain Light Rain
4:24 AM 48.2 °F 46.4 °F 93% 29.96 in 2.5 mi NE 10.4 mph - 0.00 in   Overcast
4:51 AM 48.0 °F 46.9 °F 96% 29.96 in 1.8 mi NE 6.9 mph - 0.00 in Rain Light Rain
4:59 AM 48.2 °F 46.4 °F 93% 29.97 in 2.5 mi NNE 8.1 mph - 0.00 in Rain Light Rain
5:07 AM 48.2 °F 46.4 °F 93% 29.96 in 3.0 mi NE 9.2 mph - 0.00 in   Overcast
5:51 AM 48.0 °F 46.9 °F 96% 29.95 in 3.0 mi NE 9.2 mph - 0.00 in Rain Light Rain
6:30 AM 48.2 °F 46.4 °F 93% 29.96 in 2.5 mi NE 9.2 mph - 0.00 in   Overcast
6:47 AM 48.2 °F 46.4 °F 93% 29.97 in 1.8 mi NE 8.1 mph - 0.00 in Rain Light Rain
6:51 AM 48.0 °F 46.9 °F 96% 29.97 in 1.8 mi NE 9.2 mph - 0.00 in Rain Light Rain
7:01 AM 48.2 °F 46.4 °F 93% 29.97 in 2.0 mi NE 6.9 mph - 0.00 in Rain Light Rain
7:18 AM 48.2 °F 46.4 °F 93% 29.98 in 1.8 mi NE 9.2 mph - 0.00 in Rain Light Rain
7:51 AM 48.0 °F 46.9 °F 96% 29.99 in 1.8 mi NE 10.4 mph - 0.00 in Rain Light Rain
7:58 AM 48.2 °F 46.4 °F 93% 29.99 in 2.0 mi NE 8.1 mph - 0.00 in   Overcast
8:25 AM 48.2 °F 46.4 °F 93% 29.98 in 1.5 mi NE 12.7 mph - 0.00 in   Overcast
8:34 AM 48.2 °F 46.4 °F 93% 29.98 in 1.2 mi NE 9.2 mph - 0.00 in   Overcast
8:47 AM 48.2 °F 46.4 °F 93% 29.99 in 1.0 mi ENE 9.2 mph - 0.00 in Rain Light Rain
8:51 AM 48.0 °F 46.9 °F 96% 29.99 in 1.0 mi NE 10.4 mph - 0.00 in   Overcast
9:34 AM 48.2 °F 46.4 °F 93% 29.99 in 1.5 mi NNE 9.2 mph - 0.00 in Rain Light Rain
9:44 AM 48.2 °F 48.2 °F 100% 29.99 in 1.8 mi NE 10.4 mph - 0.00 in   Overcast
10:09 AM 48.2 °F 48.2 °F 100% 29.99 in 1.0 mi NE 9.2 mph - 0.03 in Rain Light Rain
10:17 AM 48.2 °F 48.2 °F 100% 29.99 in 0.8 mi NE 8.1 mph - 0.08 in Rain Light Rain
10:21 AM 48.2 °F 48.2 °F 100% 29.99 in 1.2 mi NE 8.1 mph - 0.08 in Rain Light Rain
10:35 AM 48.2 °F 48.2 °F 100% 29.98 in 1.2 mi NE 8.1 mph - 0.08 in Rain , Thunderstorm Thunderstorms and Rain
10:51 AM 48.9 °F 48.9 °F 100% 29.98 in 1.0 mi NE 8.1 mph - 0.09 in Rain , Thunderstorm Thunderstorms and Rain
11:00 AM 50.0 °F 48.2 °F 94% 29.98 in 1.2 mi NNE 9.2 mph - 0.00 in Rain , Thunderstorm Thunderstorms and Rain
11:05 AM 50.0 °F 48.2 °F 94% 29.97 in 1.8 mi NNE 10.4 mph - 0.00 in Rain , Thunderstorm Thunderstorms and Rain
11:08 AM 50.0 °F 48.2 °F 94% 29.97 in 2.0 mi NNE 9.2 mph - 0.00 in   Overcast
11:23 AM 50.0 °F 48.2 °F 94% 29.96 in 3.0 mi NNE 8.1 mph - 0.00 in   Overcast
11:51 AM 50.0 °F 50.0 °F 100% 29.93 in 3.0 mi NE 9.2 mph - 0.00 in   Overcast
12:31 PM 51.8 °F 50.0 °F 94% 29.90 in 3.0 mi NE 10.4 mph - N/A   Overcast
12:44 PM 51.8 °F 50.0 °F 94% 29.89 in 4.0 mi NNE 9.2 mph - N/A   Overcast
12:51 PM 51.1 °F 50.0 °F 96% 29.88 in 5.0 mi NE 8.1 mph - N/A   Overcast
1:27 PM 51.8 °F 51.8 °F 100% 29.87 in 2.5 mi NE 9.2 mph - N/A   Overcast
1:42 PM 51.8 °F 51.8 °F 100% 29.87 in 1.5 mi NE 6.9 mph - N/A   Overcast
1:51 PM 52.0 °F 52.0 °F 100% 29.87 in 1.2 mi NE 6.9 mph - N/A   Overcast
2:09 PM 53.6 °F 51.8 °F 94% 29.87 in 1.5 mi NE 6.9 mph - 0.00 in Rain Light Rain
2:18 PM 53.6 °F 51.8 °F 94% 29.86 in 1.2 mi NE 10.4 mph - 0.00 in Rain Light Rain
2:23 PM 53.6 °F 51.8 °F 94% 29.86 in 1.8 mi NE 10.4 mph - 0.00 in Rain Light Rain
2:30 PM 53.6 °F 51.8 °F 94% 29.85 in 2.5 mi NE 10.4 mph - 0.00 in Rain Light Rain
2:51 PM 54.0 °F 53.1 °F 97% 29.85 in 2.0 mi NE 9.2 mph - 0.00 in Rain Light Rain
2:56 PM 53.6 °F 53.6 °F 100% 29.85 in 1.5 mi NE 10.4 mph - 0.00 in Rain Light Rain
3:09 PM 53.6 °F 51.8 °F 94% 29.85 in 2.0 mi NE 10.4 mph - 0.00 in Rain Light Rain
3:18 PM 53.6 °F 53.6 °F 100% 29.85 in 3.0 mi NE 10.4 mph - 0.00 in   Overcast
3:24 PM 53.6 °F 51.8 °F 94% 29.84 in 1.8 mi NNE 10.4 mph - 0.00 in Rain Light Rain
3:34 PM 53.6 °F 53.6 °F 100% 29.84 in 1.5 mi NE 11.5 mph - 0.00 in Rain Light Rain
3:42 PM 53.6 °F 53.6 °F 100% 29.84 in 1.2 mi NE 11.5 mph - 0.00 in Rain Light Rain
3:51 PM 54.0 °F 53.1 °F 97% 29.84 in 1.2 mi NE 9.2 mph - 0.00 in Rain Light Rain
4:06 PM 53.6 °F 53.6 °F 100% 29.84 in 1.5 mi NE 13.8 mph - 0.00 in Rain Light Rain
4:51 PM 54.0 °F 53.1 °F 97% 29.84 in 5.0 mi NNE 10.4 mph - 0.00 in Rain Light Rain
5:06 PM 53.6 °F 53.6 °F 100% 29.84 in 1.8 mi NNE 8.1 mph - 0.00 in Rain Rain
5:31 PM 53.6 °F 53.6 °F 100% 29.86 in 2.0 mi NE 9.2 mph - 0.01 in Rain Light Rain
5:49 PM 53.6 °F 53.6 °F 100% 29.86 in 1.0 mi NE 8.1 mph - 0.01 in Rain Light Rain
5:51 PM 54.0 °F 53.1 °F 97% 29.86 in 1.0 mi NE 9.2 mph - 0.01 in Rain Light Rain
6:51 PM 54.0 °F 53.1 °F 97% 29.87 in 1.0 mi NE 6.9 mph - 0.00 in Rain Light Rain
6:58 PM 53.6 °F 53.6 °F 100% 29.87 in 6.0 mi East 9.2 mph - N/A   Overcast
7:33 PM 53.6 °F 53.6 °F 100% 29.88 in 5.0 mi NE 11.5 mph - 0.00 in   Overcast
7:48 PM 53.6 °F 53.6 °F 100% 29.89 in 3.0 mi NE 10.4 mph - 0.00 in   Overcast
7:51 PM 54.0 °F 54.0 °F 100% 29.89 in 3.0 mi NE 8.1 mph - 0.00 in   Overcast
7:59 PM 53.6 °F 53.6 °F 100% 29.89 in 2.5 mi NE 9.2 mph - N/A   Overcast
8:41 PM 53.6 °F 53.6 °F 100% 29.88 in 1.8 mi ENE 10.4 mph - 0.00 in   Overcast
8:51 PM 54.0 °F 54.0 °F 100% 29.88 in 2.0 mi NNE 10.4 mph - 0.00 in   Overcast
9:11 PM 53.6 °F 53.6 °F 100% 29.89 in 5.0 mi NNE 13.8 mph 21.9 mph 0.00 in Rain Light Rain
9:49 PM 55.4 °F 53.6 °F 94% 29.92 in 10.0 mi North 9.2 mph - 0.00 in   Overcast
9:51 PM 55.0 °F 54.0 °F 96% 29.91 in 10.0 mi North 9.2 mph - 0.00 in   Overcast
10:13 PM 55.4 °F 53.6 °F 94% 29.92 in 10.0 mi North 15.0 mph - 0.00 in Rain Light Rain
10:51 PM 53.1 °F 52.0 °F 96% 29.90 in 9.0 mi North 13.8 mph - 0.01 in Rain , Thunderstorm Light Rain
11:00 PM 53.6 °F 51.8 °F 94% 29.91 in 5.0 mi NNE 11.5 mph - 0.03 in Rain , Thunderstorm Light Rain
11:06 PM 51.8 °F 51.8 °F 100% 29.90 in 2.5 mi NNE 12.7 mph - 0.08 in Rain Heavy Rain
11:15 PM 51.8 °F 51.8 °F 100% 29.90 in 7.0 mi North 16.1 mph - 0.08 in Rain Light Rain
11:29 PM 51.8 °F 51.8 °F 100% 29.90 in 9.0 mi NNE 17.3 mph - 0.08 in Rain Light Rain
11:44 PM 51.8 °F 51.8 °F 100% 29.91 in 5.0 mi North 15.0 mph - 0.14 in Rain Light Rain
11:51 PM 52.0 °F 51.1 °F 97% 29.90 in 5.0 mi North 15.0 mph - 0.15 in Rain Rain
11:58 PM 51.8 °F 51.8 °F 100% 29.91 in 7.0 mi North 15.0 mph - 0.00 in Rain Light Rain